User: anonymous   Login
Location: Mentone
(34.5413°N, 85.5351°W)
Time: 22:22:28
(UTC-06:00)
Language:

ATLAS 5 CENTAUR R/B - Orbit

View from above orbital plane
View from above orbital plane
View from above satellite
View from above satellite

Ground track
Ground track

The orbit data is extracted from the following two-line orbital elements,

1 31702U 07027B   18054.19507062 0.00000000  00000-0  00000-0 0    00
2 31702  63.3502 211.2630 0314000   4.9481 355.0519 14.18613365    09
Epoch (UTC): 23 February 2018 04:40:54
Eccentricity: 0.0314000
inclination: 63.3502°
perigee height: 604 km
apogee height: 1056 km
right ascension of ascending node: 211.2630°
argument of perigee: 4.9481°
revolutions per day: 14.18613365
mean anomaly at epoch: 355.0519°
orbit number at epoch: 0

The dashed part of the orbit path shows where the satellite is in the earth's shadow,  

DLR